Location: 5810 Zion Rd, Cleves, OH 45002, USA
(39.1922°N, 84.7113°W)
Time: 18:24:58
(UTC-05:00)

Explorer 11/Cluster Stage 4 - Visible Passes

Search period start: 09 December 2019 00:00
Search period end: 19 December 2019 00:00
Orbit: 467 x 1259 km, 28.8° (Epoch: 09 December)

Date Brightness Start Highest point End Pass type
(mag) Time Alt. Az. Time Alt. Az. Time Alt. Az.
15 Dec 10.1 06:19:59 10° SSE 06:22:04 11° SSE 06:24:08 10° SE visible
16 Dec 9.9 06:07:35 10° S 06:11:04 13° SSE 06:14:32 10° SE visible
17 Dec 9.8 05:55:44 10° S 06:00:04 15° SSE 06:04:24 10° ESE visible
18 Dec 9.7 05:44:09 10° S 05:49:04 17° SSE 05:54:01 10° ESE visible
